Regional Weather Roundup
Issued by NWS

Home | Current Version | Previous Version | Text Only | Print | Product List | Glossary Off
Versions: 1 2 3 4 5 6 7 8 9 10 11 12 13 14 15 16 17 18 19 20 21 22 23 24 25 26 27 28 29 30 31 32 33 34 35 36 37 38 39 40 41 42 43 44 45 46 47 48 49 50

000
ASUS43 KLOT 111908
RWRIL

ILLINOIS REGIONAL WEATHER ROUNDUP
NATIONAL WEATHER SERVICE CHICAGO/ROMEOVILLE IL
100 PM CST THU FEB 11 2016

NOTE: "FAIR" INDICATES FEW OR NO CLOUDS BELOW 12,000 FEET WITH NO
SIGNIFICANT WEATHER AND/OR OBSTRUCTIONS TO VISIBILITY.

* THESE STATIONS ARE NOT UNDER NWS QUALITY CONTROL. THEY ALSO MAY NOT
  REPORT WEATHER SUCH AS PRECIPITATION OR FOG.

ILZ001-002-007-009-015-016-024-112000-
NORTHWEST ILLINOIS

CITY           SKY/WX    TMP DP  RH WIND       PRES   REMARKS
MOLINE         SUNNY     23   2  40 CALM      30.34F
STERLING*      SUNNY     21   3  45 W3        30.31F
SAVANNA*       SUNNY     19   0  44 S5        30.34F WCI  12
$$

ILZ003-004-008-010-011-017-018-112000-
NORTH CENTRAL ILLINOIS

CITY           SKY/WX    TMP DP  RH WIND       PRES   REMARKS
ROCKFORD       MOSUNNY   19   3  49 NW7       30.33F WCI  10
FREEPORT*      SUNNY     16   2  53 CALM      30.33F
ROCHELLE*      SUNNY     18   6  57 W6        30.32F WCI  10
DE KALB*       SUNNY     18   5  56 NW6       30.30F WCI  10
$$

ILZ005-006-012>014-019>023-112000-
NORTHEAST ILLINOIS

CITY           SKY/WX    TMP DP  RH WIND       PRES   REMARKS
CHICAGO-OHARE  MOSUNNY   18   0  45 VRB7      30.30F WCI   9
CHICAGO-MIDWAY MOSUNNY   21   1  41 W7        30.31F WCI  12
AURORA         SUNNY     19   5  54 NW8       30.31F WCI   9
LANSING*       SUNNY     22   3  44 NW6       30.30F WCI  14
JOLIET*        SUNNY     21   2  43 CALM      30.32F
WAUKEGAN       SUNNY     17   1  49 VRB6      30.29F WCI   9
DUPAGE AIRPORT SUNNY     18   1  47 W5        30.30F WCI  11
KANKAKEE*      SUNNY     22   4  47 W5        30.32F WCI  15
WHEELING       SUNNY     19   2  47 CALM      30.32F
MORRIS*        SUNNY     20   5  51 CALM      30.30F
ROMEOVILLE*    SUNNY     20  -1  40 NW5       30.30F WCI  13
NORTHERLY ISL    N/A     21   2  43 NW8         N/A  WCI  12
$$

LMZ740>746-112000-
SOUTHERN LAKE MICHIGAN

STATION/POSITION SKY/WX   TEMP    WIND        PRES    VSBY  WAVE
                          AIR SEA DIR/SP/G                  HT/PER
                          (F)     (DEG/KT/KT) (MB)    (MI)  (FT/S)
HARRISON CRIB              16     360/  5/  8   N/A
BURNHAM HARBOR             20     230/  2/  8   N/A
CALUMET HARBOR             18     310/  6/  9 1026.0S
BURNS HARBOR               18     300/ 13/ 17 1026.4F
MICHIGAN CITY              19     280/ 17/ 19   N/A
$$

ILZ025>027-034>036-040-047-049-050-058-095>099-112000-
WEST-CENTRAL ILLINOIS

CITY           SKY/WX    TMP DP  RH WIND       PRES   REMARKS
QUINCY         SUNNY     22   4  46 CALM      30.32F
GALESBURG*     SUNNY     22   5  49 N3        30.33S
MACOMB*        SUNNY     21   7  53 N3        30.35F
JACKSONVILLE*  SUNNY     24  10  55 E3        30.33S
PITTSFIELD*    SUNNY     23   8  51 CALM      30.34S
$$

ILZ028>032-037-038-041>044-048-051>054-059>061-112000-
CENTRAL ILLINOIS

CITY           SKY/WX    TMP DP  RH WIND       PRES   REMARKS
PONTIAC        SUNNY     21   7  54 N5        30.33F WCI  14
BLOOMINGTON    SUNNY     23   4  44 CALM      30.31F
DECATUR        SUNNY     23   7  50 CALM      30.31F
PEORIA         SUNNY     23   2  40 SE5       30.33F WCI  17
LACON*         SUNNY     22   3  44 NW6       30.33F WCI  14
LINCOLN*       SUNNY     24   8  51 CALM      30.32F
SPRINGFIELD    SUNNY     26   7  44 NE6       30.31F WCI  19
TAYLORVILLE    SUNNY     23  10  58 N7        30.31F WCI  15
$$

ILZ033-039-045-046-055>057-062-063-112000-
EAST-CENTRAL ILLINOIS

CITY           SKY/WX    TMP DP  RH WIND       PRES   REMARKS
CHAMPAIGN      SUNNY     22   4  46 N6        30.31F WCI  14
RANTOUL*       SUNNY     22   5  47 CALM      30.31F
MATTOON        SUNNY     21   5  50 N7        30.30F WCI  12
PARIS*         SUNNY     22   9  58 NW5       30.32F WCI  16
$$

ILZ079-100>102-112000-
SOUTHWEST ILLINOIS

CITY           SKY/WX    TMP DP  RH WIND       PRES   REMARKS
BELLEVILLE     SUNNY     29  13  52 NW6       30.30F WCI  23
CAHOKIA*       SUNNY     28   9  44 CALM      30.31F
SPARTA*        SUNNY     26  16  66 N6        30.31F WCI  19
$$

ILZ064>066-069>071-074>076-080>082-084>086-088>090-092>094-112000-
SOUTH-CENTRAL ILLINOIS

CITY           SKY/WX    TMP DP  RH WIND       PRES   REMARKS
CARBONDALE     SUNNY     31  19  61 VRB5      30.30F WCI  26
CAIRO*         SUNNY     35  25  67 NE10      30.27F WCI  28
EFFINGHAM*     SUNNY     24  10  53 NW6       30.33F WCI  17
MARION         MOSUNNY   30  19  64 N8        30.30F WCI  23
MT. VERNON     SUNNY     28  10  47 N5        30.31F WCI  23
CENTRALIA*     SUNNY     27  12  52 N3        30.30F
SALEM*         SUNNY     27   9  46 N5        30.31F WCI  22
METROPOLIS*    SUNNY     35  26  69 N9        30.28F WCI  28
$$

ILZ067-068-072-073-078-083-087-091-112000-
SOUTHEAST ILLINOIS

CITY           SKY/WX    TMP DP  RH WIND       PRES   REMARKS
LAWRENCEVILLE  SUNNY     26  12  55 VRB5      30.32F WCI  20
FLORA*         SUNNY     29   8  40 N6        30.32F WCI  23
FAIRFIELD*     SUNNY     29  11  46 N3        30.30F
HARRISBURG*    PTSUNNY   29  18  62 N7        30.31F WCI  22
ROBINSON*      SUNNY     25   9  51 NE7       30.33F WCI  17
CARMI*         SUNNY     30  16  57 N3        30.30F
$$

ABBREVIATIONS USED IN REMARKS
   TC - TEMPERATURE IN CELSIUS
  WCI - WIND CHILL INDEX
   HX - HEAT INDEX
  VSB - VISIBILITY
$$




USA.gov is the U.S. government's official web portal to all federal, state and local government web resources and services.